Location: Bannatyne
(13.0833°N, 59.5333°W)
Time: 15:02:04
(UTC+00:00)

Transit 4A - Pass Details

Date: 20 January 2021
Orbit: 866 x 978 km, 66.8° (Epoch: 05 March)

Event Time Altitude Azimuth Distance (km) Brightness Sun altitude
Rises 22:04:28 0° 185° (S) 3,610 11.3 -3.3°
Reaches altitude 10° 22:07:06 10° 179° (S) 2,680 10.6 -3.9°
Maximum altitude 22:13:02 45° 108° (ESE) 1,296 8.4 -5.3°
Drops below altitude 10° 22:19:03 10° 38° (NE) 2,719 9.8 -6.6°
Sets 22:21:43 0° 32° (NNE) 3,668 10.5 -7.3°
